Regional Weather Roundup
Issued by NWS

Home | Current Version | Previous Version | Text Only | Print | Product List | Glossary Off
Versions: 1 2 3 4 5 6 7 8 9 10 11 12 13 14 15 16 17 18 19 20 21 22 23 24 25 26 27 28 29 30 31 32 33 34 35 36 37 38 39 40 41 42 43 44 45 46 47 48 49 50

000
ASUS43 KLSX 251607
RWRMO

WEATHER SUMMARY FOR MISSOURI
NATIONAL WEATHER SERVICE SPRINGFIELD MO
1000 AM CST THU DEC 25 2014

NOTE: "FAIR" INDICATES FEW OR NO CLOUDS BELOW 12,000 FEET WITH NO
       SIGNIFICANT WEATHER AND/OR OBSTRUCTIONS TO VISIBILITY.
       CURRENT SKY AND/OR WEATHER CONDITIONS ARE NOT AVAILABLE FOR
       CHILLICOTHE AND FARMINGTON.

MOZ001>031-035>038-043-044-053-054-251700-
...NORTHERN AND WESTERN MISSOURI...

CITY           SKY/WX    TMP DP  RH WIND       PRES   REMARKS
KANSAS CTY INT PTSUNNY   42  28  57 S22G31    29.78R
KANSAS C DTWN  SUNNY     42  29  59 S20       29.82R
LEE`S SUMMIT   SUNNY     41  28  60 S18G29    29.82R
ST JOSEPH      MOSUNNY   41  29  62 S15       29.78R
CHILLICOTHE      N/A     41  29  62 S10G21    29.84S
KIRKSVILLE     MOSUNNY   38  32  79 S12       29.88R

$$
MOZ066>068-077>081-088>096-101>105-251700-
...SOUTHWEST MISSOURI...

CITY           SKY/WX    TMP DP  RH WIND       PRES   REMARKS
SPRINGFIELD    SUNNY     40  31  70 S21G26    29.96R
JOPLIN         SUNNY     45  27  49 S24G35    29.91S

$$
MOZ032>034-039>042-045>050-055>058-069>072-251700-
...CENTRAL MISSOURI...

CITY           SKY/WX    TMP DP  RH WIND       PRES   REMARKS
COLUMBIA       SUNNY     38  31  76 S17       29.96R WCI  28
JEFFERSON CITY SUNNY     40  31  70 S7        29.99R
ROLLA          SUNNY     40  30  67 S17G24    29.98R
SEDALIA        SUNNY     41  30  65 S17       29.91S
WHITEMAN AFB   SUNNY     41  30  65 S16G25    29.87F
WARRENSBURG    SUNNY     41  30  65 S15G25    29.86S
OSAGE BEACH    SUNNY     37  28  70 S9        29.97S

$$
MOZ051-052-059>065-251700-
...EAST CENTRAL MISSOURI...

CITY           SKY/WX    TMP DP  RH WIND       PRES   REMARKS
ST LOUIS INTL  MOSUNNY   42  31  64 S7        30.05R
SPIRIT OF STL  SUNNY     41  31  67 S6        30.03R
ST CHARLES     SUNNY     40  32  73 S12       30.04R

$$
MOZ072>076-082>087-097>100-106>115-251700-
...SOUTH CENTRAL AND SOUTHEAST MISSOURI...

CITY           SKY/WX    TMP DP  RH WIND       PRES   REMARKS
CAPE GIRARDEAU SUNNY     42  35  76 S8        30.14R
FARMINGTON     SUNNY     39  32  75 S13       30.08R
POPLAR BLUFF   SUNNY     41  33  73 SW14      30.14R
WEST PLAINS    SUNNY     40  31  70 S9        30.05R

$$



USA.gov is the U.S. government's official web portal to all federal, state and local government web resources and services.